Location: *
(49.1466°N, 1.6216°E)
Time: 18:11:22
(UTC+00:00)

IRS-1A Rocket - Pass Details

Date: 25 September 2023
Orbit: 851 x 930 km, 99.1° (Epoch: 10 December)

Event Time Altitude Azimuth Distance (km) Brightness Sun altitude
Exits shadow 20:51:03 76° 264° (W) 883 4.2 -29.2°
Drops below altitude 10° 20:56:31 10° 342° (NNW) 2,498 7.3 -29.9°
Sets 20:58:55 0° 344° (NNW) 3,443 8.2 -30.2°
